Showing default

FLOCK 4G 5, 62663

Orbit data source: Space-Track

FLOCK 4G 5, 62663 is a payload satellite owned by Planet (US) in SSO that was launched on Tue, 14 Jan 2025 UTC via an FALCON 9 launch vehicle from the Air Force Western Test Range (AFWTR). Payload-class satellites include a variety of spacecraft equipped with specific instruments for various scientific and technological missions. These include communications satellites like Starlink; space stations such as the ISS; scientific satellites like the Hubble; Earth observation satellites from companies like Planet Labs, Umbra, and HawkEye 360; GPS; miniature CubeSats for education and research; and military/defense satellites.

Loading next visibility...
Identifier
62663, 2025-009BG
Orbit
SSO
Country
Flag of USUS
Related business
Manufacturer
Planet
Mission
Partially operational Commercial Imaging
Bus & Motor
CUBESAT 3U, Unknown motor
Mass
5.7 kg wet, 5.7 kg dry
Launch date (UTC)
2025-01-14 (1 year ago)
Launch vehicle
FALCON 9
Launch site
Air Force Western Test Range (AFWTR)
Object type
Payload
Rocket body
Debris
Shape & HBR
Box + 2 Pan, 1.0 m
Radar Cross Section
0.072 m², Medium (>0.1 m² and < 1m²)

Expand to show TLE details & history
Last TLE update: 11 hours ago

TLE from 11 hours ago
0 FLOCK 4G 5
1 62663U 25009BG  26126.49583963  .00008181  00000-0  28615-3 0  9996
2 62663  97.4020 209.0262 0004883  98.1879 261.9915 15.29780474 72563
Epoch: 2026-05-06T11:54Z
TLE epoch observation values (Epoch: 2026-05-06T11:54:00.544Z)
Latitude
-0.00004°
Longitude
166.16843°
Altitude
480.04 km
Speed
7.625 km/s
True Right ascension
13h 56m 06s
True Declination
0° 00' 00"
Sunlit
Object was in full shadow at epoch
Visualization orbit readout
Latitude
Unknown
Longitude
Unknown
Altitude
Unknown
Speed
Unknown
Apparent Right ascension
Unknown
Apparent Declination
Unknown
Sunlit
N/A
Visualization observer readout
Local Sidereal Time
06:55:25
Azimuth
Unknown
Elevation
Unknown
Doppler factor
Unknown
Orbital elements
Apogee altitude
476.766 km
Perigee altitude
470.075 km
Semi-major axis
6,851.558 km
Eccentricity
0.00049
Inclination
97.402°
RAAN
209.0262°
Arg. of periapsis
98.1879°
True anomaly
261.9361°
Mean anomaly
261.9915°
Eccentric anomaly
261.9638°
Mean motion
3.82701 °/min
Orbital period
94.07 mins
BSTAR
0.00028615
Loading maneuver chart data...
Computing Atmospheric mass density...
Loading historical data...
Loading historical data...
Loading historical data...
Loading historical data...
Loading historical data...
Loading historical data...
Loading historical data...

Documentation

Showing up to 5 results
|